Regional Weather Roundup
Issued by NWS

Home | Current Version | Previous Version | Text Only | Print | Product List | Glossary On
Versions: 1 2 3 4 5 6 7 8 9 10 11 12 13 14 15 16 17 18 19 20 21 22 23 24 25 26 27 28 29 30 31 32 33 34 35 36 37 38 39 40 41 42 43 44 45 46 47 48 49 50
000
ASUS43 KMPX 170001
RWRMN
WEATHER ROUNDUP FOR MINNESOTA
NATIONAL WEATHER SERVICE TWIN CITIES/CHANHASSEN MN
600 PM CST MON JAN 16 2017


NOTE: "FAIR" INDICATES FEW OR NO CLOUDS BELOW 12,000 FEET WITH NO
SIGNIFICANT WEATHER AND/OR OBSTRUCTIONS TO VISIBILITY. N/A MEANS
CURRENT SKY AND/OR WEATHER CONDITIONS ARE NOT AVAILABLE.

MNZ060>063-068>070-170100-
   Twin Cities Metro

CITY           SKY/WX    TMP DP  RH WIND       PRES   REMARKS
TWIN CITIES    FRZ RAIN  31  23  72 NE7       30.03F WCI  24
6HR MIN TEMP:  27; 6HR MAX TEMP:  32; 6HR PCP: TRACE;

ST PAUL        MIX PCPN  31  23  72 VRB5      30.05S WCI  26
CRYSTAL        CLOUDY    31  20  63 NE3       30.03S
BLAINE         CLOUDY    30  23  74 E6        30.03F WCI  24
LAKEVILLE      MIX PCPN  28  27  93 NE7       30.01F WCI  21
EDEN PRAIRIE   CLOUDY    32  24  72 NE7       30.01S WCI  26
6HR MIN TEMP:  27; 6HR MAX TEMP:  32;

SOUTH ST PAUL  MIX PCPN  32  25  76 CALM      30.04S
LAKE ELMO      MIX PCPN  30  21  69 NE6       30.04F WCI  24
$$
MNZ001>005-007-008-013>017-022>024-027-028-170100-
   Northwest Minnesota

CITY           SKY/WX    TMP DP  RH WIND       PRES   REMARKS
BEMIDJI        CLOUDY    17  14  86 CALM      30.00S
HALLOCK        CLOUDY     9   5  85 S6        30.05S WCI  -1
ROSEAU         CLOUDY    12   7  79 CALM      30.03S
WARROAD        CLOUDY    12   9  85 CALM      30.04S
THIEF RVR FALL CLOUDY    11   7  84 SE3       30.04S
CROOKSTON      CLOUDY    10   7  85 SE6       30.06S WCI   1
FOSSTON        CLOUDY    10   5  79 CALM      30.04R
DETROIT LAKES  CLOUDY    23  16  74 SW3       30.04R
MOORHEAD       CLOUDY    12   7  79 CALM      30.07R
PARK RAPIDS    CLOUDY    18  12  77 S7        30.01R WCI   9
MAHNOMEN       FAIR      12   8  85 W7        30.03R WCI   2
$$
MNZ006-009>011-018-025>026-170100-
   North Central Minnesota

CITY           SKY/WX    TMP DP  RH WIND       PRES   REMARKS
BAUDETTE       CLOUDY    16  11  80 E3        30.01S
FLAG ISLAND    CLOUDY    12   7  79 CALM      30.02F
INTL FALLS     CLOUDY    17  11  77 CALM      30.03R
6HR MIN TEMP:  17; 6HR MAX TEMP:  31;

WASKISH        CLEAR     14  10  85 CALM      30.03S
BIG FORK       CLOUDY    25  19  80 CALM      30.02R
LONGVILLE      CLOUDY    25  18  74 CALM      30.04R
GRAND RAPIDS   CLOUDY    29  20  69 S7        30.05R WCI  22
CRANE LAKE     CLEAR     16  16 100 CALM      30.05S
ORR            CLOUDY    25  19  80 CALM      30.00R
COOK           CLOUDY    27  19  74 CALM      30.02S
WALKER         FAIR      22  17  78 CALM      30.01R
$$
MNZ012-019>021-037-170100-
   Northeast Minnesota

CITY           SKY/WX    TMP DP  RH WIND       PRES   REMARKS
DULUTH         CLOUDY    27  17  66 SW3       30.03F
6HR MIN TEMP:  25; 6HR MAX TEMP:  34;

ELY            CLOUDY    23  19  86 CALM      30.03R
HIBBING        CLOUDY    18  17  96 CALM      30.03R
EVELETH        CLOUDY    23  18  81 CALM      30.05R
DULUTH HARBOR  CLOUDY    27  19  74 CALM      30.08S
TWO HARBORS    CLOUDY    27  19  74 CALM      30.04S
SILVER BAY     CLEAR     27  23  86 CALM      30.05R
GRAND MARAIS     N/A     27  22  81 CALM      30.08S
G MARAIS ARPRT CLEAR     25  19  80 CALM      30.04R
$$
MNZ029>031-032-039>041-046>048-054>057-064-170100-
   West Central Minnesota

CITY           SKY/WX    TMP DP  RH WIND       PRES   REMARKS
FERGUS FALLS   CLOUDY    16  10  79 NW5       30.09S WCI   9
WHEATON        CLOUDY    21  19  93 CALM      30.08S
MORRIS         CLOUDY    21  18  86 CALM      30.05R
ALEXANDRIA     CLOUDY    26  18  71 SE3       30.03S
ELBOW LAKE     FAIR      15  13  90 W6        30.05R FOG     WCI   7
WADENA         CLOUDY    19  16  86 CALM      30.03S
GLENWOOD       FOG       25  25 100 CALM      30.04S VSB<1/4
APPLETON       CLOUDY    25  21  86 N3        30.05S
ORTONVILLE     CLOUDY    16  12  86 CALM      30.05R
MADISON        CLOUDY    25  19  80 N5        30.05S WCI  19
WILLMAR        CLOUDY    32  30  93 CALM      30.03F
$$
MNZ033>034-036-042>043-049>051-058-059-170100-
   Central Minnesota

CITY           SKY/WX    TMP DP  RH WIND       PRES   REMARKS
ST CLOUD       CLOUDY    26  22  84 NE5       30.03F WCI  20
6HR MIN TEMP:  21; 6HR MAX TEMP:  28;

SAUK CENTRE    FOG       26  26  99 CALM      30.04F VSB 1/4
PAYNESVILLE    FOG       29  29 100 N3        30.04S VSB 1
AITKIN         CLOUDY    19  12  73 CALM      30.03S
PINE RIVER     CLOUDY    21  16  79 CALM      30.07R
BRAINERD       CLOUDY    21  15  78 CALM      30.04S
STAPLES        CLOUDY    18  14  86 CALM      30.04R
LONG PRAIRIE   MOCLDY    21  18  86 CALM      30.04S
LITTLE FALLS   CLOUDY    27  21  80 CALM      30.06R
LITCHFIELD     CLOUDY    30  27  86 NE3       30.03S
BUFFALO        CLOUDY    30  26  83 N5        30.04S WCI  25
MAPLE LAKE     CLOUDY    31  26  80 N3        30.04S
HUTCHINSON     CLOUDY    32  27  83 NE7       30.02F WCI  26
$$
MNZ037-044-045-052-053-170100-
   East Central Minnesota

CITY           SKY/WX    TMP DP  RH WIND       PRES   REMARKS
PRINCETON      CLOUDY    25  19  80 CALM      30.04F
MORA           CLOUDY    18  12  79 CALM      30.07S
CAMBRIDGE      CLOUDY    28  18  64 CALM      30.04S
RUSH CITY      CLOUDY    25  18  74 CALM      30.06S
MOOSE LAKE     CLOUDY    27  19  74 CALM      30.04S
HINCKLEY       FAIR      25  19  80 N5        30.06S WCI  19
CLOQUET        CLOUDY    27  16  63 CALM      30.04S
MCGREGOR       CLOUDY    23  19  86 CALM      30.04S
$$
MNZ071>073-080-081-089-090-097-098-170100-
   Southwest Minnesota

CITY           SKY/WX    TMP DP  RH WIND       PRES   REMARKS
MONTEVIDEO     CLOUDY    27  23  86 N6        30.05S WCI  20
GRANITE FALLS  CLOUDY    30  28  92 NW5       30.04S FOG     WCI  26
CANBY            N/A     26  21  82 CALM      30.05R
MARSHALL       CLOUDY    27  25  92 N5        30.02S WCI  22
REDWOOD FALLS  CLOUDY    31  28  89 NE3       30.02S FOG
OLIVIA         CLOUDY    32  30  93 E5        30.01F WCI  27
PIPESTONE      MIX PCPN  30  28  93 N6        29.97S WCI  24
WINDOM         MIX PCPN  30  30 100 N9        29.97S WCI  22
WORTHINGTON    LGT SNOW  30  29  96 N13       29.97R FOG     WCI  20
JACKSON        LGT RAIN  30  30 100 N9        29.96S WCI  22
TRACY          CLOUDY    30  28  93 N6        30.01R WCI  24
SLAYTON        MIX PCPN  28  28  99 N9        29.99R WCI  19
$$
MNZ065>067-074>077-082>085-091>093-170100-
   South Central Minnesota

CITY           SKY/WX    TMP DP  RH WIND       PRES   REMARKS
MANKATO        MIX PCPN  31  29  92 NE8       29.99F FOG     WCI  23
NEW ULM        MIX PCPN  30  28  93 NE8       30.00S WCI  23
ST JAMES       MIX PCPN  30  30 100 N6        29.99F WCI  24
FAIRMONT       MIX PCPN  31  30  96 N9        29.97S FOG     WCI  23
GLENCOE        CLOUDY    32  31  94 CALM      30.00F
FARIBAULT      MIX PCPN  30  28  93 N9        29.99F WCI  22
OWATONNA       LGT RAIN  30  30 100 NE7       29.97F WCI  23
WASECA         MIX PCPN  32  32 100 NE7       29.98S WCI  26
ALBERT LEA     MIX PCPN  32  32 100 NE8       29.95S WCI  25
$$
MNZ078>079-086>088-094>096-170100-
   Southeast Minnesota

CITY           SKY/WX    TMP DP  RH WIND       PRES   REMARKS
ROCHESTER      FRZ RAIN  31  30  96 NE13      29.96F FOG     WCI  21
6HR MIN TEMP:  29; 6HR MAX TEMP:  31; 6HR PCP:  0.32;

RED WING       MIX PCPN  30  28  93 E5        30.02F WCI  25
STANTON        MIX PCPN  31  28  90 NE6       29.99F WCI  25
DODGE CENTER   MIX PCPN  30  30 100 CALM      29.96F
WINONA         MIX PCPN  32  32 100 CALM      30.02F
AUSTIN         MIX PCPN  32  30  93 NE7       29.95S WCI  26
PRESTON        MIX PCPN  31  29  95 NE6       29.96S WCI  25
$$
ABBREVIATIONS USED IN REMARKS
   TC - TEMPERATURES IN CELSIUS
  WCI - WIND CHILL INDEX
   HX - HEAT INDEX
  VSB - VISIBILITY
$$



USA.gov is the U.S. government's official web portal to all federal, state and local government web resources and services.